CZ-3B DEB, 40848

Orbit data source: Space-Track

CZ-3B DEB, 40848 is space debris in HEO originally from a launch on Mon, 19 Dec 2011 UTC launched from the Xichang Space Center, China (XSC). Debris objects in space refer to the collection of defunct objects orbiting the Earth. Examples of debris include non-operational satellites, rocket bodies, and fragments generated from explosions, collisions, or faulty payload assembly.

Loading next visibility...
Identifier
40848, 2011-077AD
Orbit
HEO
Last TLE update
3 days ago
Origin
Manufacturer
CALT
Mission
Spacecraft
Bus & Motor
Unknown
Mass
Unknown
Launch date (UTC)
2011-12-19 (13 years ago)
Launch vehicle
Unknown
Launch site
Xichang Space Center, China (XSC)
Object type
Payload
Rocket body
Debris
Shape & HBR
Unknown
Radar Cross Section
Medium (>0.1 m² and <1 m²)

Expand to show TLE details & history

TLE from 3 days ago
0 CZ-3B DEB
1 40848U 11077AD  25126.28509596  .00000113  00000-0  15166-1 0  9995
2 40848  26.2750 109.2170 7355480 197.6846 107.6380  1.90955470 71318
Epoch: 2025-05-06T06:50Z
Definitive object data (Epoch: 2025-05-06T06:50:32.29Z)
Latitude
-0.00019°
Longitude
142.1397°
Altitude
35,712.82 km
Speed
2.101 km/s
True Right ascension
07h 16m 38s
True Declination
0° 00' 01"
Sunlit
Object was in daylight at TLE epoch
Visualization TLE readout
Latitude
15.21484°
Longitude
-72.03128°
Altitude
2,537.826 km
Speed
8.654 km/s
Apparent Right ascension
19h 10m 41s
Apparent Declination
-17° 00' 57"
Sunlit
Object is in full shadow
Visualization observer readout
Local Sidereal Time
14:24:31
Azimuth
114.779° SE
Elevation
2.546°
Doppler factor
1
Orbital elements
Apogee altitude
41,258.563 km
Perigee altitude
880.447 km
Semi-major axis
27,447.642 km
Eccentricity
0.735548
Inclination
26.275°
RAAN
109.217°
Arg. of periapsis
197.6846°
True anomaly
162.33896°
Mean anomaly
107.638°
Eccentric anomaly
136.5964°
Mean motion
0.47729 °/min
BSTAR
0.015166
Orbital period
754.25 mins
Loading maneuver chart data...
Loading SW <> Apogee altitude chart data...
Loading historical data...
Loading historical data...
Loading historical data...
Loading historical data...
Loading historical data...
Loading historical data...
Loading historical data...

CZ-3B DEB Visibility forecast

Observer location: undefined°, undefined°

Span
Click to sort rows by Start time (UTC) header in descending order
Start Az.
Max El. time (UTC)
Max El. Az.
Max El.
End time (UTC)
End Az.
621 mins2025-05-09 19:54:43.085Z177.565° S2025-05-10 00:52:43.085Z203.459° SW37.528°2025-05-10 06:15:43.085Z259.233° W
|